Kekaha, HI

10:41 PM HST on August 27, 2016 (GMT -1000)
Barking Sands PMRF

Weather History for PHBK - March, 2013

Change the Weather History Date:

Tuesday, March 19, 2013

  Actual Average Record
Temperature  
Mean Temperature 72 °F -  
Max Temperature 80 °F 82 °F 86 °F (1975)
Min Temperature 64 °F 62 °F 58 °F (1958)
Cooling Degree Days 7    
Growing Degree Days 22 (Base 50)    
Moisture  
Dew Point 56 °F    
Average Humidity 55    
Maximum Humidity 78    
Minimum Humidity 42    
Precipitation  
Precipitation 0.00 in - - ()
Sea Level Pressure  
Sea Level Pressure 29.97 in    
Wind  
Wind Speed 5 mph (SE)    
Max Wind Speed 16 mph    
Max Gust Speed 20 mph    
Visibility 10 miles    
Events      
Averages and records for this station are not official NWS values.
T = Trace of Precipitation, MM = Missing Value Source: NWS Daily Summary

Daily Weather History Graph

Daily Weather History Graph

Search for Another Location

Airport or City:

Trip Planner

Search our weather history database for the weather conditions in past years. The results will help you decide how hot, cold, wet, or windy it might be!

Date:

Astronomy

Mar. 19, 2013 Rise Set
Actual Time 6:43 AM HST 6:50 PM HST
Civil Twilight 6:21 AM HST 7:12 PM HST
Nautical Twilight 5:55 AM HST 7:38 PM HST
Astronomical Twilight 5:29 AM HST 8:04 PM HST
Moon 12:22 PM HST (3/19) 1:07 AM HST (3/19)
Length of Visible Light 12h 50m
Length of Day
12h 06m
First Quarter, 52% of the Moon is Illuminated
Mar 19
First Quarter
Mar 26
Full
Apr 2
Last Quarter
Apr 9
New
Apr 18
First Quarter

Hourly Weather History & Observations

Time (HST) Temp. Heat Index Dew Point Humidity Pressure Visibility Wind Dir Wind Speed Gust Speed Precip Events Conditions
12:56 AM 66.0 °F - 54.0 °F 65% 29.99 in 10.0 mi East 3.5 mph - N/A   Mostly Cloudy
1:56 AM 68.0 °F - 53.1 °F 59% 29.98 in 10.0 mi East 3.5 mph - N/A   Overcast
2:56 AM 68.0 °F - 52.0 °F 56% 29.96 in 10.0 mi Calm Calm - N/A   Overcast
3:56 AM 66.9 °F - 54.0 °F 63% 29.94 in 10.0 mi SE 3.5 mph - N/A   Partly Cloudy
4:56 AM 64.9 °F - 53.1 °F 65% 29.94 in 10.0 mi East 6.9 mph - N/A   Clear
5:56 AM 66.9 °F - 50.0 °F 54% 29.96 in 10.0 mi Calm Calm - N/A   Overcast
6:56 AM 66.9 °F - 48.9 °F 52% 29.98 in 10.0 mi ENE 4.6 mph - N/A   Mostly Cloudy
7:56 AM 71.1 °F - 50.0 °F 47% 30.00 in 10.0 mi Calm Calm - N/A   Overcast
8:56 AM 75.9 °F - 51.1 °F 42% 30.02 in 10.0 mi North 4.6 mph - N/A   Mostly Cloudy
9:56 AM 77.0 °F - 53.1 °F 43% 30.01 in 10.0 mi South 10.4 mph - N/A   Clear
10:56 AM 78.1 °F - 55.0 °F 45% 30.00 in 10.0 mi South 11.5 mph - N/A   Clear
11:56 AM 79.0 °F - 57.0 °F 47% 29.99 in 10.0 mi South 12.7 mph 19.6 mph N/A   Mostly Cloudy
12:56 PM 80.1 °F 80.7 °F 59.0 °F 48% 29.97 in 10.0 mi South 12.7 mph - N/A   Mostly Cloudy
1:56 PM 80.1 °F 80.9 °F 60.1 °F 50% 29.95 in 10.0 mi South 16.1 mph 19.6 mph N/A   Mostly Cloudy
2:56 PM 79.0 °F - 59.0 °F 50% 29.94 in 10.0 mi South 12.7 mph - N/A   Partly Cloudy
3:56 PM 80.1 °F 80.2 °F 55.9 °F 43% 29.94 in 10.0 mi SSW 9.2 mph - N/A   Scattered Clouds
4:56 PM 77.0 °F - 61.0 °F 58% 29.95 in 10.0 mi South 8.1 mph - N/A   Clear
5:56 PM 75.9 °F - 57.9 °F 54% 29.95 in 10.0 mi SSE 5.8 mph - N/A   Mostly Cloudy
6:56 PM 73.9 °F - 59.0 °F 59% 29.95 in 10.0 mi SE 6.9 mph - N/A   Clear
7:56 PM 71.1 °F - 57.0 °F 61% 29.96 in 10.0 mi Calm Calm - N/A   Scattered Clouds
8:56 PM 70.0 °F - 57.0 °F 63% 29.99 in 10.0 mi SE 4.6 mph - N/A   Partly Cloudy
9:56 PM 68.0 °F - 53.1 °F 59% 30.00 in 10.0 mi SE 5.8 mph - N/A   Scattered Clouds
10:56 PM 68.0 °F - 57.9 °F 70% 30.00 in 10.0 mi ESE 4.6 mph - N/A   Clear
11:56 PM 71.1 °F - 64.0 °F 78% 29.99 in 10.0 mi Calm Calm - N/A   Clear